Weather in Akrotiri

Greece     36°21′23″N   25°23′36″E
temp.,
°C
wind,
m/s
gust,
m/s
humid.,
%
clouds,
%
prec.,
mm/h
press.,
hPa
HPBL,
m
28 september, tue
tue2800:00+24wnw79700 0.0 1014355
03:00+24nw1012740 0.0 1013448
06:00+24nnw711730 0.0 1012454
09:00+23nnw1012730 0.0 1013512
12:00+23nnw10127575 0.0 1014562
15:00+23nnw9107216 0.0 1013469
18:00+23nnw88752 0.0 1013386
21:00+23nnw99745 0.0 1014393
29 september, wed
wed2900:00+23nnw8107330 0.0 1015466
03:00+23nnw10127383 0.0 1014455
06:00+22nnw1011725 0.0 1014481
09:00+22nnw1010725 0.0 1015596
12:00+22nnw77683 0.0 1015663
15:00+22nnw1010680 0.0 1015699
18:00+22nnw99680 0.0 1015743
21:00+22nnw910675 0.0 1016673
30 september, thu
thu3000:00+23nnw1111685 0.0 1015765
03:00+22nnw11126436 0.0 1015806
06:00+21n1113650 0.0 1015880
09:00+21nnw1112662 0.0 1016914
12:00+21n1112625 0.0 10171070
15:00+21nnw1213650 0.0 10161193
18:00+22nnw1315610 0.0 10161281
21:00+22nnw1515690 0.0 10161140
1 october, fri
fri100:00+22n1213635 0.0 10161244
03:00+21n1313650 0.0 10161154
06:00+20n1213670 0.0 10161093
09:00+20n1011660 0.0 10161059
12:00+20n910631 0.0 10171206
15:00+21n1010641 0.0 10161303
18:00+22nnw1010570 0.0 10161299
21:00+22nnw1111630 0.0 10161057
2 october, sat
sat200:00+21nnw1212675 0.0 10161021
03:00+21nnw1212705 0.0 1015923
06:00+21n996916 0.0 1015983
09:00+20nnw10107016 0.0 10151040
12:00+20nnw886724 0.0 10161104
15:00+21nnw99666 0.0 10151175
18:00+21nnw1111665 0.0 10151173
21:00+21nnw1212666 0.0 10161214